Weather in Troitskoe

Russia / Khabarovsk Krai     49°26′25″N   136°32′59″E
temp.,
°C
wind,
m/s
gust,
m/s
humid.,
%
clouds,
%
prec.,
mm/h
press.,
hPa
HPBL,
m
27 february, sat
sat2701:00−19s4798100 0.0 1033118
04:00−21s589896 0.1 1033130
07:00−22s589770 0.0 1034142
10:00−19ssw6109370 0.0 1033306
13:00−15ssw698882 0.0 1031420
16:00−12sw588690 0.0 1027423
19:00−13sw2391100 0.0 102627
22:00−13ssw0190100 0.0 102220
28 february, sun
sun2801:00−12sw2293100 0.1 101974
04:00−10wsw3996100 1.6 1016288
07:00−8sw71394100 0.9 1015595
10:00−7sw91489100 1.1 1014450
13:00−5sw101576100 0.0 1014737
16:00−6sw101668100 0.0 1015765
19:00−10sw9167297 0.0 1018431
22:00−14sw9157665 0.0 1021345
1 march, mon
mon101:00−17sw714770 0.0 1022281
04:00−18sw7128321 0.0 1024328
07:00−20ssw61084100 0.1 1026276
10:00−19ssw71079100 0.1 1027532
13:00−16sw7970100 0.0 1027773
16:00−14sw487375 0.0 1027451
19:00−17sw613750 0.0 1029304
22:00−18sw613770 0.0 1030237
2 march, tue
tue201:00−21sw58800 0.0 1030127
04:00−22sw58820 0.0 1031119
07:00−24ssw58890 0.0 103292
10:00−22ssw58840 0.0 1031261
13:00−19sw57770 0.0 1030594
16:00−18sw24750 0.0 1029268
19:00−20sse33880 0.0 103020
22:00−23sse34930 0.0 103232
3 march, wed
wed301:00−24s45920 0.0 103149
04:00−26ssw45930 0.0 103043
07:00−26s44940 0.0 103040
10:00−22ssw48890 0.0 1028272
13:00−18sw478648 0.0 1025347
16:00−15sw368274 0.0 1021387
19:00−16sw1185100 0.0 102020
22:00−16sw1285100 0.0 101820